Wind_Speed
23 24 24 25 26 26 27 27 26 26 26 25 26 26 26 26 27 27 27 27 26 26 25 25 24 24 24 23 23 23 23 23 24 24 24 24 24 23 23 24 24 23 23
25 25 25 26 27 28 29 28 28 28 28 27 28 27 26 27 27 27 28 28 28 27 26 25 24 25 25 24 24 24 24 24 24 24 24 24 24 24 24 25 24 25 25
26 26 27 27 28 29 29 29 29 29 28 28 28 28 27 28 28 28 28 28 27 27 26 25 25 25 25 25 25 25 25 25 25 25 25 25 25 25 25 25 25 26 26
27 27 28 28 29 30 30 30 30 29 29 28 28 28 28 28 28 28 27 27 27 27 27 27 26 25 25 25 26 25 26 26 26 27 26 27 27 27 27 27 26 26 27
28 28 28 29 30 30 30 30 30 30 29 29 29 29 28 28 28 28 28 27 27 27 27 27 27 26 25 26 26 26 27 26 27 28 28 28 29 29 28 28 28 28 28
29 28 28 28 28 28 28 29 30 30 30 29 29 29 29 29 29 29 29 29 27 26 26 27 27 27 26 26 26 26 26 26 26 27 28 28 29 29 29 29 28 29 29
29 28 28 28 29 29 28 28 28 29 30 30 29 30 30 30 29 29 29 29 28 27 27 27 27 27 27 26 26 26 26 26 26 26 27 28 29 29 29 29 29 28 29
28 28 28 30 30 29 28 29 29 29 29 30 29 29 29 28 29 28 28 28 28 29 28 27 27 26 26 26 26 26 27 26 26 27 27 28 28 28 29 29 30 29 29
28 29 29 30 30 29 29 29 29 29 29 29 29 29 29 28 28 28 27 27 27 28 28 26 26 26 26 27 27 27 27 26 26 27 28 28 28 27 29 29 29 30 30
28 29 30 30 28 28 28 28 28 28 27 27 27 27 27 27 26 27 27 27 27 28 27 26 26 26 26 26 27 27 27 27 27 27 27 27 27 27 28 29 29 29 29
28 28 29 28 28 27 27 27 26 26 26 25 26 26 26 25 25 26 27 27 27 28 28 27 26 26 26 25 26 27 27 27 26 25 26 26 27 26 27 28 28 29 29
27 27 26 26 26 25 25 25 25 24 24 24 24 24 25 25 25 25 25 26 26 27 27 27 26 26 27 26 25 24 25 25 25 24 25 25 26 26 27 27 28 29 29
26 25 24 24 24 24 23 23 22 22 23 23 23 23 23 23 24 23 24 25 24 25 27 27 27 27 27 26 25 24 24 25 25 25 25 24 25 25 25 26 26 27 27
24 23 23 24 23 23 22 22 22 22 22 22 22 22 22 22 22 22 23 25 25 24 25 26 27 27 27 26 25 25 24 24 24 25 24 23 23 24 24 24 25 25 26
22 22 23 23 23 23 22 22 21 21 21 21 21 21 21 21 21 21 22 23 24 24 25 25 25 26 26 26 25 25 25 24 24 24 24 23 23 23 23 23 24 25 25
23 23 23 23 23 22 22 21 21 20 20 21 21 20 20 20 20 20 21 21 22 22 24 25 25 25 26 25 25 25 24 24 23 24 24 24 24 24 24 23 24 24 25
22 22 22 22 22 21 21 21 20 20 20 20 19 19 19 18 18 19 20 20 20 21 22 23 24 24 24 25 25 24 24 24 24 24 24 24 25 25 24 24 24 24 25
22 22 22 21 21 21 20 20 20 20 19 18 18 19 18 18 16 18 19 18 18 19 21 22 23 23 24 24 23 24 24 24 24 24 24 24 25 25 25 25 25 25 25
21 22 21 21 21 21 20 20 20 19 19 18 18 17 17 16 16 16 16 16 17 18 19 20 21 22 24 24 22 23 24 25 24 24 25 24 25 25 25 25 25 25 25
22 22 21 21 21 20 19 20 20 19 18 17 16 16 15 15 16 16 15 15 15 15 16 18 19 20 22 24 23 23 24 25 25 25 25 24 25 25 25 24 25 25 25
21 21 21 21 20 20 20 20 19 19 17 16 15 15 15 14 14 13 14 14 14 14 15 16 17 19 20 22 22 22 23 24 25 25 25 24 24 24 24 24 24 25 25
20 21 20 20 20 19 19 19 18 17 15 14 14 14 14 13 13 12 13 14 14 14 15 15 16 18 19 20 21 20 21 22 23 24 24 24 24 25 25 24 25 25 25
20 19 20 19 19 19 18 18 17 17 16 14 14 14 13 13 12 12 13 13 13 13 13 14 14 15 17 18 19 19 20 20 21 22 22 23 24 24 24 24 25 25 25
19 19 18 18 18 18 18 17 16 15 15 14 14 13 13 12 12 12 12 12 11 12 13 13 13 13 14 16 17 18 19 20 20 21 21 22 22 23 23 23 24 24 24
19 18 18 17 17 17 17 16 15 14 14 13 13 12 12 11 11 11 11 10 11 11 11 11 11 12 13 15 16 17 19 20 20 21 22 22 23 23 24 25 25 25 25
17 17 17 16 16 16 15 14 14 13 13 12 12 11 11 11 10 10 10 9 9 9 9 10 11 13 14 15 16 18 19 19 20 21 22 22 23 23 24 25 25 26 26
Wind_Direction
294 294 293 292 290 287 284 281 279 278 278 277 274 272 270 269 266 266 265 265 265 266 266 264 264 262 260 258 255 255 256 254 252 251 249 249 247 246 245 244 244 242 241
294 294 294 294 291 289 286 283 281 278 277 276 274 272 270 269 267 267 266 265 264 265 265 262 263 261 259 257 255 254 254 253 252 251 248 247 247 245 245 245 245 243 242
298 296 294 293 292 290 288 285 281 278 277 275 274 271 268 268 266 265 266 266 264 264 263 260 260 260 257 255 254 254 253 253 253 251 248 248 247 244 246 245 245 245 244
300 299 296 295 295 293 289 285 281 279 277 275 273 271 268 267 265 264 264 264 264 264 262 261 259 260 257 253 253 253 253 255 253 250 249 248 247 245 246 244 245 246 245
302 302 299 297 297 295 291 286 283 280 277 275 272 271 270 267 266 263 262 262 263 262 260 260 258 257 255 253 253 254 254 255 254 251 249 249 247 245 246 245 246 246 244
303 303 301 299 299 297 293 289 285 281 279 276 272 272 271 270 267 263 263 262 262 261 259 258 257 255 254 253 253 254 254 254 252 252 250 250 248 247 247 246 245 245 244
304 304 303 302 300 297 293 291 288 283 281 278 276 273 271 269 266 264 263 262 261 260 259 257 255 254 252 251 253 252 252 253 252 252 251 250 249 248 247 246 245 245 244
304 305 303 301 298 295 293 291 289 285 283 279 277 275 272 269 266 265 263 261 259 258 257 255 253 252 251 251 252 251 251 252 253 251 251 251 250 250 248 248 246 246 246
304 303 302 300 298 295 294 292 290 287 285 282 278 275 272 269 267 266 263 260 259 256 254 253 252 252 253 253 252 251 250 250 250 250 250 251 250 249 249 248 248 247 246
304 303 302 300 298 297 295 294 292 288 286 282 279 276 272 268 266 264 263 260 258 256 255 254 252 250 250 252 254 252 250 250 250 250 249 250 251 250 248 248 247 245 244
304 305 303 302 302 300 298 295 293 290 288 285 280 277 273 270 268 266 262 260 258 257 255 254 251 249 249 250 251 250 248 249 248 248 248 249 249 250 250 249 247 245 243
307 308 307 307 306 303 300 297 294 292 289 287 284 279 274 271 269 267 262 258 256 256 255 254 251 250 248 247 248 248 245 246 246 246 247 249 248 249 249 250 248 246 243
312 313 311 310 308 305 303 302 298 295 291 289 288 283 277 274 270 268 262 256 254 253 253 252 252 250 249 248 247 246 246 245 246 247 248 249 248 249 249 249 247 244 243
315 316 314 314 312 309 306 303 301 297 294 292 290 287 282 278 272 268 264 258 253 252 252 251 251 249 248 247 247 246 246 245 246 247 247 247 248 246 247 248 246 243 242
317 318 318 316 315 313 310 307 304 300 297 295 293 291 286 279 274 269 266 260 254 251 249 249 249 246 246 246 246 247 247 246 245 245 245 245 245 244 245 247 246 245 244
315 317 319 319 317 315 313 310 308 304 300 296 295 293 290 283 275 271 267 262 258 254 250 248 248 246 245 244 244 246 246 246 245 247 247 245 244 244 244 245 245 246 246
315 316 318 318 318 316 315 312 309 307 305 300 296 295 291 286 280 273 269 266 262 256 253 250 248 246 245 242 243 244 244 243 243 244 245 245 245 244 246 246 245 245 245
315 316 318 320 318 317 316 314 312 309 306 303 299 296 292 290 286 279 274 272 266 260 255 253 249 246 243 241 243 242 242 243 242 243 244 245 246 246 246 248 248 248 249
317 318 317 319 320 317 316 317 315 313 308 304 302 299 297 292 287 286 281 275 269 263 258 254 248 245 243 242 242 243 244 244 243 243 245 246 247 247 247 248 249 250 250
317 319 319 318 318 318 319 319 318 316 314 309 305 301 300 295 290 286 281 275 270 265 258 252 247 245 243 242 242 243 244 244 244 243 244 247 248 246 246 246 248 249 250
318 319 319 319 319 320 321 321 320 318 316 312 308 306 302 298 293 289 282 276 271 265 259 252 249 246 244 243 243 244 245 244 244 245 246 246 246 245 245 246 248 250 251
321 321 319 319 321 321 321 322 324 325 322 319 314 309 305 301 296 291 285 281 275 265 259 254 250 248 246 244 244 245 246 243 243 244 244 246 248 247 247 248 250 252 252
323 323 322 322 322 322 323 323 323 326 323 321 319 317 312 306 301 293 290 285 276 266 263 257 254 251 246 242 241 242 243 242 242 243 244 245 246 248 250 251 253 254 254
325 325 325 325 324 323 324 323 322 326 327 324 321 320 318 313 309 301 296 289 280 270 265 259 255 249 244 240 239 241 243 244 244 246 248 248 247 248 249 252 253 255 256
329 329 330 328 327 328 328 324 322 321 325 327 327 323 320 318 313 309 302 294 284 276 269 260 254 253 249 245 243 244 246 246 246 249 251 251 249 250 252 254 254 256 257
333 333 333 332 330 330 331 329 326 326 325 326 329 329 328 323 318 314 310 303 294 280 270 266 260 255 253 251 250 250 249 250 250 251 253 252 251 251 253 255 256 256 257
Height
5852 5850 5848 5845 5843 5841 5839 5837 5836 5834 5833 5831 5830 5829 5828 5827 5827 5827 5826 5826 5826 5826 5826 5826 5826 5826 5827 5828 5828 5829 5829 5830 5831 5832 5834 5835 5836 5838 5839 5841 5842 5844 5845
5846 5844 5841 5839 5836 5834 5831 5829 5828 5826 5825 5824 5823 5822 5821 5821 5820 5820 5820 5819 5819 5819 5819 5820 5820 5820 5820 5821 5822 5823 5824 5825 5826 5827 5828 5829 5831 5832 5834 5836 5837 5839 5840
5839 5837 5835 5832 5829 5826 5824 5821 5819 5818 5817 5815 5815 5814 5814 5813 5813 5812 5812 5812 5812 5813 5813 5813 5813 5813 5814 5815 5816 5817 5818 5819 5820 5821 5822 5824 5825 5827 5829 5830 5832 5833 5835
5833 5830 5828 5825 5821 5818 5815 5813 5811 5809 5808 5807 5806 5806 5805 5805 5805 5805 5805 5805 5806 5806 5806 5806 5806 5807 5808 5808 5809 5810 5812 5813 5814 5815 5816 5818 5819 5821 5823 5824 5826 5828 5829
5826 5823 5821 5817 5814 5811 5808 5805 5803 5801 5800 5799 5798 5797 5797 5797 5797 5797 5797 5798 5798 5798 5798 5799 5800 5800 5801 5802 5803 5804 5805 5806 5807 5808 5810 5811 5813 5815 5816 5818 5820 5821 5823
5820 5816 5813 5810 5806 5803 5800 5797 5795 5793 5792 5790 5789 5789 5788 5788 5788 5789 5789 5790 5790 5790 5791 5791 5792 5793 5794 5795 5796 5797 5798 5800 5800 5802 5803 5805 5806 5808 5810 5812 5813 5815 5816
5813 5809 5806 5802 5799 5796 5792 5790 5787 5785 5783 5782 5781 5780 5780 5780 5780 5780 5781 5782 5782 5783 5783 5784 5785 5786 5787 5788 5789 5790 5791 5793 5794 5795 5796 5798 5799 5801 5803 5805 5807 5808 5810
5806 5802 5799 5795 5791 5788 5785 5782 5780 5777 5775 5774 5773 5772 5772 5772 5771 5772 5772 5773 5774 5775 5776 5776 5777 5779 5780 5781 5782 5783 5785 5786 5787 5789 5789 5791 5793 5794 5796 5797 5799 5801 5803
5798 5795 5792 5788 5784 5781 5778 5775 5772 5769 5767 5765 5764 5763 5763 5763 5763 5763 5764 5765 5765 5766 5768 5769 5770 5771 5773 5774 5775 5777 5778 5779 5780 5781 5783 5784 5785 5787 5788 5790 5792 5793 5795
5792 5788 5784 5780 5777 5773 5770 5767 5764 5761 5759 5757 5755 5755 5755 5755 5755 5755 5756 5756 5757 5758 5760 5761 5762 5764 5765 5767 5768 5769 5770 5772 5773 5774 5776 5777 5778 5780 5781 5783 5784 5786 5788
5785 5781 5777 5773 5769 5766 5762 5759 5756 5754 5752 5750 5748 5747 5746 5746 5746 5747 5748 5748 5749 5750 5752 5753 5755 5756 5758 5759 5761 5762 5763 5765 5766 5767 5769 5770 5771 5773 5774 5776 5777 5779 5780
5779 5774 5770 5766 5762 5759 5756 5752 5749 5747 5744 5742 5740 5739 5739 5738 5738 5738 5739 5740 5741 5743 5744 5746 5747 5749 5750 5752 5753 5754 5756 5757 5759 5760 5762 5763 5765 5766 5767 5768 5770 5771 5773
5773 5769 5765 5761 5757 5753 5750 5746 5743 5740 5738 5736 5734 5732 5731 5731 5730 5730 5731 5732 5733 5735 5736 5738 5740 5741 5743 5744 5746 5747 5749 5750 5752 5754 5755 5757 5758 5759 5760 5761 5763 5764 5766
5768 5764 5760 5756 5752 5748 5744 5741 5738 5735 5732 5730 5728 5726 5724 5723 5723 5723 5723 5724 5726 5727 5729 5730 5732 5734 5735 5737 5739 5740 5742 5744 5745 5747 5748 5750 5751 5752 5754 5755 5756 5757 5759
5763 5759 5755 5751 5747 5743 5739 5736 5732 5729 5726 5724 5722 5720 5718 5717 5716 5716 5716 5717 5718 5719 5721 5723 5724 5726 5728 5729 5731 5733 5735 5737 5739 5741 5742 5744 5745 5746 5747 5749 5750 5751 5752
5759 5754 5750 5747 5743 5739 5735 5731 5727 5724 5721 5719 5716 5714 5712 5711 5710 5709 5709 5709 5710 5712 5713 5715 5717 5718 5720 5722 5724 5726 5728 5730 5732 5734 5736 5737 5738 5740 5741 5743 5744 5745 5746
5754 5750 5746 5742 5738 5734 5730 5727 5723 5719 5716 5713 5711 5709 5707 5705 5704 5703 5703 5703 5703 5704 5706 5707 5709 5711 5713 5715 5717 5719 5722 5724 5726 5727 5729 5731 5732 5733 5735 5736 5737 5738 5740
5750 5746 5742 5738 5734 5730 5726 5722 5718 5715 5712 5709 5706 5704 5702 5700 5699 5698 5697 5697 5697 5698 5699 5700 5702 5704 5706 5708 5710 5713 5715 5717 5719 5721 5722 5724 5725 5727 5728 5730 5731 5732 5733
5746 5742 5738 5734 5730 5726 5722 5718 5714 5711 5707 5704 5702 5700 5698 5696 5694 5693 5692 5692 5692 5692 5692 5694 5695 5697 5699 5701 5704 5706 5708 5710 5712 5714 5716 5717 5719 5720 5721 5723 5724 5725 5726
5742 5738 5734 5730 5726 5722 5718 5714 5711 5707 5703 5700 5698 5695 5693 5692 5690 5688 5688 5687 5687 5687 5687 5688 5690 5691 5693 5695 5698 5700 5702 5704 5706 5707 5709 5711 5712 5713 5715 5716 5717 5718 5719
5738 5734 5730 5726 5722 5718 5714 5710 5707 5703 5700 5697 5694 5692 5689 5688 5686 5685 5684 5683 5682 5682 5683 5683 5684 5686 5688 5689 5692 5694 5696 5697 5699 5701 5702 5704 5705 5707 5708 5709 5710 5711 5712
5733 5730 5726 5722 5718 5714 5711 5707 5703 5700 5697 5694 5691 5688 5686 5684 5683 5681 5680 5679 5678 5678 5678 5679 5680 5681 5682 5684 5686 5688 5689 5691 5693 5695 5696 5697 5698 5700 5701 5702 5703 5704 5705
5730 5726 5722 5718 5714 5711 5707 5704 5700 5697 5694 5691 5688 5686 5684 5682 5680 5678 5677 5676 5675 5674 5674 5675 5676 5676 5678 5679 5681 5683 5683 5685 5686 5688 5689 5691 5691 5692 5694 5695 5696 5697 5698
5726 5722 5718 5714 5711 5707 5704 5701 5697 5694 5691 5688 5686 5683 5681 5679 5677 5675 5674 5672 5671 5671 5671 5671 5671 5672 5673 5674 5676 5677 5678 5680 5681 5682 5683 5684 5685 5686 5687 5688 5688 5689 5690
5722 5718 5715 5711 5708 5704 5701 5698 5695 5692 5689 5686 5684 5681 5679 5677 5675 5673 5671 5670 5669 5668 5667 5667 5668 5668 5669 5670 5671 5672 5673 5674 5675 5676 5676 5678 5678 5679 5680 5680 5681 5682 5683
5720 5716 5712 5709 5705 5702 5699 5696 5692 5689 5687 5684 5682 5680 5677 5675 5673 5671 5669 5668 5666 5665 5665 5664 5664 5665 5665 5665 5666 5667 5667 5668 5669 5670 5670 5671 5671 5672 5673 5673 5674 5674 5675